[[{"header":{"parameterUnit":"m.s-1","parameterCategory":1,"la1":30.2991,"la2":30.254,"lo1":-89.0895,"lo2":-89.0444,"dy":0.0017,"dx":0.0017,"nx":28,"ny":28,"refTime":"2023-08-29T09:00:00:Z","depth":0,"parameterNumber":2,"parameterNumberName":"U-component_of_WINDS"},"data":[0,0,0,0,0,0,0,0,0,0,0,0,0,0,0,0,0,0,0,0,0,0,0,0,0,0,0,0,0,0,0,0,0,0,0,0,0,0,0,0,0,0,0,0,0,0,0,0,0,0,0,0,0,0,0,0,0,0,-1.0241,-1.0242,0,-1.0374,-1.0375,-1.0377,-1.0375,-1.0373,-1.0371,-1.0369,-1.0511,-1.0516,-1.0521,0,0,0,0,0,0,0,0,0,0,0,0,0,-0.999,-0.9995,-1.0241,-1.0243,-1.0244,-1.0373,-1.0375,-1.0377,-1.0375,-1.0373,-1.037,-1.0368,-1.0509,-1.0515,-1.0522,0,0,0,0,0,0,0,0,0,0,0,0,0,-1.0109,-0.9996,-1.0241,-1.0258,-1.0261,-1.0373,-1.0375,-1.0378,-1.0375,-1.0373,-1.037,-1.0367,-1.0507,-1.0515,-1.0523,-1.0627,0,0,-1.0548,-1.0551,0,0,0,0,0,0,0,0,-1.0102,-1.0118,-1.0254,-1.0257,-1.0261,-1.0355,-1.0339,-1.0461,-1.0376,-1.0332,-1.0369,-1.0366,-1.0461,-1.0473,-1.0504,-1.0633,-1.064,-1.0548,-1.0553,-1.0557,-1.0559,0,0,0,0,0,0,0,-1.0094,-1.0112,-1.0294,-1.0256,-1.026,-1.0262,-1.0275,-1.0362,-1.041,-1.0336,-1.0336,-1.0351,-1.0463,-1.0496,-1.0507,-1.0642,-1.0548,-1.0555,-1.056,-1.0563,-1.0865,-1.0868,0,0,0,0,0,0,-1.0081,-1.0106,-1.0289,-1.0298,-1.0173,-1.0268,-1.0284,-1.0327,-1.0409,-1.0419,-1.0354,-1.0351,-1.0483,-1.0498,-1.0512,-1.0641,-1.0557,-1.0564,-1.0569,-1.0862,-1.0866,-1.0869,0,0,0,0,0,0,-1.0076,-1.0098,-1.0284,-1.0202,-1.0225,-1.0275,-1.0325,-1.0331,-1.0365,-1.0423,-1.0432,-1.0379,-1.0482,-1.0501,-1.0598,-1.0646,-1.0568,-1.0575,-1.0858,-1.0863,-1.0867,-1.0899,0,0,0,0,0,0,-1.0069,-1.0096,-1.0135,-1.0202,-1.023,-1.0367,-1.0327,-1.0336,-1.0378,-1.0376,-1.0449,-1.0458,-1.0481,-1.0586,-1.0606,-1.0656,-1.0582,-1.0854,-1.086,-1.0866,-1.0894,-1.0904,-1.0913,0,0,0,0,0,-1.006,-1.0139,-1.0137,-1.0159,-1.0279,-1.0369,-1.0385,-1.0408,-1.0382,-1.0423,-1.046,-1.0456,-1.0637,-1.0596,-1.0619,-1.0672,-1.0852,-1.0859,-1.0866,-1.089,-1.0902,-1.0913,0,0,0,0,0,0,-1.0078,-1.0148,-1.0147,-1.025,-1.0303,-1.0369,-1.0421,-1.0421,-1.0484,-1.048,-1.0507,-1.0524,-1.0622,-1.0656,-1.061,-1.0777,-1.0741,-1.0753,-1.0752,-1.0764,-1.0773,-1.0764,-1.0589,0,0,0,0,0,-1.0093,-1.0159,-1.0217,-1.0303,-1.033,-1.037,-1.0411,-1.0424,-1.0481,-1.0504,-1.0549,-1.0606,-1.0676,-1.0721,-1.0789,-1.0898,-1.0915,-1.0946,-1.0955,-1.0962,-1.0973,-1.1035,-1.105,-1.0892,-1.0892,-1.0892,0,0,-1.0127,-1.0174,-1.0214,-1.0308,-1.0351,-1.042,-1.039,-1.0464,-1.0516,-1.0516,-1.0611,-1.0645,-1.0711,-1.0816,-1.0864,-1.0847,-1.102,-1.0971,-1.0977,-1.0984,-1.1044,-1.1059,-1.1072,-1.0897,-1.0896,-1.0895,0,0,-1.0224,-1.0265,-1.0341,-1.0385,-1.045,-1.0476,-1.0494,-1.056,-1.0582,-1.0677,-1.0679,-1.0742,-1.0861,-1.0909,-1.0948,-1.1063,-1.1062,-1.1084,-1.1134,-1.1194,-1.1207,-1.1218,-1.1261,-1.1276,-1.1094,-1.1094,-1.1094,0,-1.0258,-1.0361,-1.0381,-1.0456,-1.0498,-1.0499,-1.0578,-1.0619,-1.0704,-1.0734,-1.0713,-1.0863,-1.0908,-1.1024,-1.1052,-1.1083,-1.1107,-1.1077,-1.1203,-1.1215,-1.1225,-1.1267,-1.1283,-1.1096,-1.1096,-1.1096,-1.1096,0,-1.0401,-1.0472,-1.0526,-1.0606,-1.0654,-1.073,-1.0764,-1.081,-1.0819,-1.0848,-1.0946,-1.0999,-1.1077,-1.1105,-1.1115,-1.1224,-1.1212,-1.1197,-1.1161,-1.1242,-1.1282,-1.1298,-1.11,-1.1099,-1.1098,-1.1098,0,0,-1.0515,-1.0604,-1.0624,-1.066,-1.0732,-1.0788,-1.0865,-1.094,-1.098,-1.1038,-1.1105,-1.1205,-1.1192,-1.1237,-1.1252,-1.1305,-1.1395,-1.1284,-1.1286,-1.1305,-1.1519,-1.1532,-1.155,-1.1393,-1.1396,-1.1399,-1.1515,0,-1.0621,-1.0756,-1.0776,-1.0896,-1.0963,-1.0965,-1.1032,-1.1084,-1.1113,-1.1175,-1.1208,-1.128,-1.1256,-1.1283,-1.1335,-1.1372,-1.1438,-1.1364,-1.1458,-1.1461,-1.1444,-1.157,-1.1583,-1.169,-1.153,-1.1533,-1.1534,0,-1.0763,-1.0824,-1.095,-1.1012,-1.1041,-1.1101,-1.1172,-1.1231,-1.1291,-1.1308,-1.1358,-1.1367,-1.1448,-1.1407,-1.1521,-1.147,-1.151,-1.1534,-1.1539,-1.1551,-1.1505,-1.1587,-1.1724,-1.1741,-1.1558,-1.1557,-1.1555,0,-1.0837,-1.0949,-1.1039,-1.107,-1.1145,-1.1188,-1.1221,-1.1278,-1.1322,-1.1384,-1.1414,-1.1485,-1.1525,-1.1581,-1.161,-1.1577,-1.1723,-1.1684,-1.1742,-1.1741,-1.1775,-1.1773,-1.1922,-1.1796,-1.1796,-1.1795,-1.1795,0,-1.0954,-1.1032,-1.1073,-1.1129,-1.1216,-1.1239,-1.1326,-1.1358,-1.1409,-1.1472,-1.1478,-1.1538,-1.157,-1.1636,-1.1659,-1.1751,-1.1768,-1.1787,-1.1792,-1.1788,-1.1786,-1.1816,-1.181,-1.18,-1.1799,-1.1798,-1.1797,0,-1.1052,-1.1082,-1.1181,-1.1243,-1.1261,-1.1323,-1.1377,-1.1432,-1.146,-1.1541,-1.1561,-1.1606,-1.1683,-1.1716,-1.1811,-1.1826,-1.1933,-1.1932,-1.1913,-1.1915,-1.1972,-1.1967,-1.2148,-1.2174,-1.2029,-1.203,-1.2031,0,-1.1126,-1.1186,-1.1254,-1.1296,-1.1331,-1.1398,-1.1443,-1.1468,-1.1515,-1.1587,-1.1634,-1.1711,-1.1774,-1.1897,-1.1939,-1.2013,-1.2015,-1.2073,-1.2026,-1.202,-1.2019,-1.2016,-1.2023,-1.2083,-1.2084,-1.2085,-1.2086,0,-1.1256,-1.1268,-1.1331,-1.14,-1.1453,-1.1509,-1.1563,-1.1598,-1.1632,-1.1684,-1.1762,-1.1811,-1.1907,-1.1984,-1.206,-1.2096,-1.2099,-1.21,-1.2118,-1.2115,-1.2103,-1.2113,-1.1939,-1.2097,-1.2096,-1.2095,-1.2094,-1.2094,-1.1346,-1.1399,-1.1456,-1.1527,-1.157,-1.1621,-1.1676,-1.171,-1.1775,-1.1855,-1.1865,-1.1949,-1.2008,-1.211,-1.2149,-1.2217,-1.2202,-1.2228,-1.2234,-1.2241,-1.2246,-1.2089,-1.223,-1.223,-1.223,-1.223,-1.2229,0,-1.1478,-1.1514,-1.1578,-1.1654,-1.171,-1.1704,-1.1764,-1.1812,-1.1885,-1.1939,-1.2,-1.2091,-1.2165,-1.2213,-1.2289,-1.2334,-1.2337,-1.2353,-1.2351,-1.236,-1.2253,-1.2231,-1.2349,-1.2349,-1.2349,-1.2349,-1.2349,-1.2349,-1.1553,-1.1644,-1.1662,-1.1775,-1.1811,-1.1892,-1.1927,-1.1975,-1.2018,-1.2118,-1.2179,-1.2209,-1.2261,-1.2341,-1.241,-1.2422,-1.2451,-1.2468,-1.248,-1.238,-1.2367,-1.2356,-1.2335,-1.2474,-1.2474,-1.2582,-1.2583,-1.2584]},{"header":{"parameterUnit":"m.s-1","parameterCategory":1,"la1":30.2991,"la2":30.254,"lo1":-89.0895,"lo2":-89.0444,"dy":0.0017,"dx":0.0017,"nx":28,"ny":28,"refTime":"2023-08-29T09:00:00:Z","depth":0,"parameterNumber":3,"parameterNumberName":"V-component_of_WINDS"},"data":[0,0,0,0,0,0,0,0,0,0,0,0,0,0,0,0,0,0,0,0,0,0,0,0,0,0,0,0,0,0,0,0,0,0,0,0,0,0,0,0,0,0,0,0,0,0,0,0,0,0,0,0,0,0,0,0,0,0,-6.7129,-6.713,0,-6.724,-6.7241,-6.7242,-6.7157,-6.7153,-6.7149,-6.7146,-6.7254,-6.726,-6.7266,0,0,0,0,0,0,0,0,0,0,0,0,0,-6.6838,-6.6844,-6.7129,-6.713,-6.7132,-6.724,-6.7241,-6.7243,-6.7157,-6.7153,-6.7148,-6.7144,-6.7252,-6.7259,-6.7267,0,0,0,0,0,0,0,0,0,0,0,0,0,-6.6958,-6.6845,-6.7129,-6.7102,-6.7101,-6.7239,-6.7241,-6.7243,-6.7158,-6.7153,-6.7147,-6.7142,-6.7249,-6.7258,-6.7268,-6.7436,0,0,-6.7296,-6.73,0,0,0,0,0,0,0,0,-6.6951,-6.6969,-6.7105,-6.7104,-6.7103,-6.7179,-6.7178,-6.7308,-6.716,-6.7136,-6.7146,-6.7139,-6.7233,-6.7243,-6.7276,-6.7441,-6.7446,-6.7297,-6.7303,-6.7307,-6.731,0,0,0,0,0,0,0,-6.6943,-6.6963,-6.7172,-6.7107,-6.7106,-6.7083,-6.7094,-6.7202,-6.7214,-6.7138,-6.7132,-6.7147,-6.7231,-6.7267,-6.7278,-6.7447,-6.7297,-6.7305,-6.7311,-6.7315,-6.7756,-6.7761,0,0,0,0,0,0,-6.6938,-6.6957,-6.7169,-6.7176,-6.7012,-6.7093,-6.7105,-6.716,-6.7213,-6.7215,-6.7151,-6.7142,-6.7254,-6.7267,-6.7281,-6.7482,-6.7307,-6.7316,-6.7321,-6.775,-6.7757,-6.7763,0,0,0,0,0,0,-6.6932,-6.6958,-6.7165,-6.7065,-6.709,-6.7104,-6.7166,-6.7165,-6.7201,-6.7223,-6.7224,-6.7186,-6.725,-6.7268,-6.7399,-6.7485,-6.732,-6.7329,-6.7743,-6.7752,-6.776,-6.7885,0,0,0,0,0,0,-6.6924,-6.6956,-6.7022,-6.7067,-6.7095,-6.7282,-6.7171,-6.7171,-6.7218,-6.7207,-6.7256,-6.7258,-6.7247,-6.7385,-6.7408,-6.7495,-6.7336,-6.7735,-6.7747,-6.7757,-6.7874,-6.7898,-6.7918,0,0,0,0,0,-6.6914,-6.7051,-6.7026,-6.7052,-6.7178,-6.7287,-6.7303,-6.7289,-6.7225,-6.7291,-6.7304,-6.7257,-6.7472,-6.7399,-6.7424,-6.7515,-6.7729,-6.7743,-6.7756,-6.7864,-6.7893,-6.7918,0,0,0,0,0,0,-6.7014,-6.7057,-6.7029,-6.7185,-6.7234,-6.7273,-6.7355,-6.732,-6.7386,-6.7373,-6.7351,-6.7363,-6.75,-6.752,-6.7439,-6.7681,-6.759,-6.7609,-6.7663,-6.7691,-6.7713,-6.7705,-6.7344,0,0,0,0,0,-6.7054,-6.7141,-6.7173,-6.7308,-6.7334,-6.7341,-6.7388,-6.7373,-6.7421,-6.744,-6.7464,-6.7511,-6.7589,-6.7641,-6.7714,-6.7876,-6.7885,-6.795,-6.7973,-6.7991,-6.8008,-6.8095,-6.8124,-6.7808,-6.7808,-6.7808,0,0,-6.7138,-6.7172,-6.7228,-6.7329,-6.7365,-6.7454,-6.7358,-6.7456,-6.7522,-6.7455,-6.758,-6.7599,-6.765,-6.7797,-6.7863,-6.7818,-6.8097,-6.8008,-6.8023,-6.803,-6.8112,-6.8142,-6.8168,-6.7817,-6.7816,-6.7814,0,0,-6.7337,-6.7372,-6.7488,-6.7527,-6.7583,-6.7586,-6.7614,-6.7659,-6.7669,-6.7795,-6.7747,-6.7823,-6.7958,-6.7996,-6.8033,-6.8247,-6.8205,-6.8271,-6.8387,-6.8473,-6.8497,-6.8519,-6.8596,-6.8623,-6.8288,-6.8288,-6.8288,0,-6.7434,-6.7568,-6.7552,-6.7655,-6.77,-6.7645,-6.7762,-6.7799,-6.7875,-6.7907,-6.7856,-6.8024,-6.8055,-6.821,-6.8263,-6.8294,-6.8325,-6.8266,-6.8496,-6.8517,-6.8538,-6.861,-6.8639,-6.8296,-6.8295,-6.8294,-6.8293,0,-6.7684,-6.7778,-6.7865,-6.7943,-6.7998,-6.8107,-6.8106,-6.8163,-6.8143,-6.8151,-6.8279,-6.8314,-6.8393,-6.8428,-6.8409,-6.8581,-6.8552,-6.8499,-6.8407,-6.8576,-6.8643,-6.8671,-6.8307,-6.8304,-6.8302,-6.83,0,0,-6.7949,-6.8017,-6.8049,-6.8084,-6.8142,-6.8213,-6.8319,-6.8398,-6.8447,-6.8501,-6.8589,-6.8705,-6.8656,-6.8698,-6.8683,-6.8757,-6.8924,-6.8695,-6.8696,-6.8737,-6.9116,-6.9156,-6.9189,-6.8897,-6.8902,-6.8906,-6.9112,0,-6.8151,-6.8339,-6.8327,-6.8502,-6.8588,-6.8537,-6.8629,-6.8673,-6.8684,-6.8757,-6.8766,-6.8849,-6.8779,-6.8804,-6.8876,-6.8889,-6.9,-6.8874,-6.8977,-6.8981,-6.8967,-6.9224,-6.9267,-6.9459,-6.9138,-6.9142,-6.9146,0,-6.8412,-6.8478,-6.8662,-6.8707,-6.8743,-6.8826,-6.8898,-6.8969,-6.9017,-6.9019,-6.9068,-6.9039,-6.9144,-6.905,-6.9194,-6.9109,-6.915,-6.9163,-6.917,-6.9179,-6.9074,-6.924,-6.952,-6.9549,-6.9187,-6.9184,-6.9181,0,-6.8587,-6.8721,-6.8849,-6.888,-6.8936,-6.8996,-6.9021,-6.9065,-6.9113,-6.9175,-6.9206,-6.9278,-6.9318,-6.9374,-6.9366,-6.9298,-6.9512,-6.9417,-6.9516,-6.9516,-6.9564,-6.9561,-6.9854,-6.959,-6.9589,-6.9589,-6.9588,0,-6.8814,-6.8929,-6.8929,-6.9008,-6.9134,-6.9119,-6.9244,-6.9262,-6.9302,-6.9382,-6.9341,-6.9416,-6.94,-6.9475,-6.9469,-6.9589,-6.9606,-6.961,-6.9607,-6.9615,-6.9614,-6.9641,-6.9628,-6.9596,-6.9595,-6.9593,-6.9592,0,-6.9032,-6.9036,-6.9173,-6.9215,-6.9228,-6.9319,-6.9354,-6.9428,-6.9434,-6.9536,-6.9559,-6.9569,-6.9655,-6.9652,-6.9749,-6.9745,-6.9893,-6.9874,-6.9877,-6.9873,-6.9972,-6.9963,-7.0294,-7.0336,-7.0044,-7.0047,-7.0049,0,-6.9177,-6.9265,-6.9317,-6.9368,-6.9399,-6.9482,-6.9532,-6.9519,-6.9572,-6.9635,-6.97,-6.9783,-6.9848,-6.9987,-7.0002,-7.0076,-7.0058,-7.0169,-7.0069,-7.0074,-7.006,-7.0056,-7.0064,-7.0189,-7.0192,-7.0195,-7.0197,0,-6.9434,-6.9432,-6.9506,-6.9582,-6.9643,-6.9702,-6.9755,-6.9799,-6.9792,-6.9854,-6.9942,-6.9993,-7.0093,-7.0175,-7.0245,-7.0269,-7.0232,-7.0228,-7.0255,-7.0264,-7.0262,-7.0265,-6.9931,-7.0221,-7.0219,-7.0217,-7.0215,-7.0215,-6.962,-6.9695,-6.9744,-6.9828,-6.9868,-6.9919,-6.999,-7.0007,-7.0081,-7.0163,-7.015,-7.0249,-7.0294,-7.0386,-7.0416,-7.0492,-7.0452,-7.0491,-7.0501,-7.0511,-7.0522,-7.025,-7.0504,-7.0504,-7.0503,-7.0502,-7.0502,0,-6.9875,-6.9904,-6.9982,-7.0059,-7.0125,-7.0086,-7.0143,-7.0201,-7.0289,-7.0335,-7.0401,-7.0502,-7.0582,-7.0603,-7.0679,-7.0735,-7.072,-7.0756,-7.0752,-7.0758,-7.0553,-7.0523,-7.0767,-7.0767,-7.0767,-7.0767,-7.0767,-7.0766,-7.0015,-7.0142,-7.0145,-7.029,-7.0317,-7.0416,-7.0452,-7.0498,-7.0535,-7.0651,-7.0718,-7.0732,-7.0768,-7.0846,-7.0916,-7.092,-7.095,-7.0993,-7.099,-7.0799,-7.0772,-7.0747,-7.0718,-7.0999,-7.1,-7.1188,-7.119,-7.1191]}]]